Location: Newark
(43.6583°N, 1.6617°E)
Time: 19:43:00
(UTC+00:00)

SR - All Passes

Search period start: 18 August 2019 00:00
Search period end: 28 August 2019 00:00
Orbit: 578 x 878 km, 66.7° (Epoch: 16 August)

Date Brightness Start Highest point End Pass type
(mag) Time Alt. Az. Time Alt. Az. Time Alt. Az.
18 Aug - 00:24:20 10° W 00:25:27 11° WSW 00:26:35 10° WSW visible
18 Aug - 13:10:35 10° SSW 13:14:52 60° ESE 13:19:32 10° NE daylight
18 Aug - 14:53:59 10° W 14:57:24 20° NW 15:01:00 10° N daylight
18 Aug - 20:08:25 10° N 20:11:28 15° NE 20:14:36 10° ENE visible
18 Aug - 21:49:06 10° NNW 21:54:32 64° NE 22:00:18 10° SE visible
18 Aug - 23:32:05 10° WNW 23:36:14 22° WSW 23:40:33 10° SSW visible
19 Aug - 12:21:46 10° SSE 12:25:29 28° ESE 12:29:27 10° NE daylight
19 Aug - 14:03:16 10° WSW 14:07:23 35° NW 14:11:49 10° NNE daylight
19 Aug - 20:59:41 10° NNW 21:04:43 37° NE 21:10:02 10° ESE visible
19 Aug - 22:41:42 10° NW 22:46:52 40° WSW 22:52:16 10° S visible
20 Aug - 11:34:16 10° SE 11:36:17 13° ESE 11:38:22 10° ENE daylight
20 Aug - 13:13:10 10° SW 13:17:35 70° NW 13:22:22 10° NNE daylight
20 Aug - 14:58:24 10° WNW 15:00:40 13° NW 15:03:00 10° N daylight
20 Aug - 20:10:28 10° N 20:14:44 23° NE 20:19:09 10° E visible
20 Aug - 21:51:49 10° NW 21:57:20 76° WSW 22:03:10 10° SSE visible
20 Aug - 23:36:51 10° W 23:38:38 11° WSW 23:40:25 10° WSW visible
21 Aug - 12:23:42 10° SSW 12:27:59 56° ESE 12:32:39 10° NE daylight
21 Aug - 14:06:56 10° W 14:10:28 21° NW 14:14:12 10° N daylight
21 Aug - 19:21:35 10° N 19:24:32 15° NE 19:27:34 10° ENE visible
21 Aug - 21:02:12 10° NNW 21:07:39 61° NE 21:13:25 10° SE visible
21 Aug - 22:45:05 10° WNW 22:49:25 23° WSW 22:53:51 10° SSW visible
22 Aug - 11:34:57 10° SSE 11:38:37 26° ESE 11:42:31 10° NE daylight
22 Aug - 13:16:17 10° WSW 13:20:28 37° NW 13:24:59 10° NNE daylight
22 Aug - 20:12:48 10° NNW 20:17:49 35° NE 20:23:06 10° ESE visible
22 Aug - 21:54:46 10° NW 22:00:01 43° WSW 22:05:30 10° S visible
23 Aug - 10:47:41 10° SE 10:49:26 12° ESE 10:51:14 10° E daylight
23 Aug - 12:26:15 10° SW 12:30:40 74° WNW 12:35:30 10° NNE daylight
23 Aug - 14:11:16 10° WNW 14:13:43 14° NW 14:16:16 10° N daylight
23 Aug - 19:23:37 10° N 19:27:49 22° NE 19:32:11 10° E visible
23 Aug - 21:04:55 10° NNW 21:10:29 80° WSW 21:16:20 10° SSE visible
23 Aug - 22:49:34 10° W 22:51:48 12° WSW 22:54:04 10° SW visible
24 Aug - 11:36:50 10° SSW 11:41:07 52° ESE 11:45:46 10° NE daylight
24 Aug - 13:19:54 10° W 13:23:32 23° NW 13:27:24 10° N daylight
24 Aug - 18:34:46 10° N 18:37:36 14° NE 18:40:31 10° ENE daylight
24 Aug - 20:15:20 10° NNW 20:20:47 58° NE 20:26:32 10° SE visible
24 Aug - 21:58:06 10° WNW 22:02:34 24° WSW 22:07:10 10° SSW visible
25 Aug - 10:48:10 10° SSE 10:51:45 25° ESE 10:55:34 10° NE daylight
25 Aug - 12:29:19 10° WSW 12:33:33 40° NW 12:38:09 10° NNE daylight
25 Aug - 19:25:57 10° NNW 19:30:56 34° NE 19:36:10 10° ESE visible
25 Aug - 21:07:51 10° NW 21:13:10 45° WSW 21:18:42 10° S visible
26 Aug - 10:01:10 10° ESE 10:02:36 11° ESE 10:04:03 10° E daylight
26 Aug - 11:39:19 10° SW 11:43:46 79° WNW 11:48:39 10° NNE daylight
26 Aug - 13:24:07 10° WNW 13:26:46 15° NW 13:29:32 10° N daylight
26 Aug - 18:36:45 10° N 18:40:54 21° NE 18:45:11 10° E daylight
26 Aug - 20:18:01 10° NNW 20:23:37 84° WSW 20:29:29 10° SSE visible
26 Aug - 22:02:23 10° WNW 22:04:59 13° WSW 22:07:37 10° SW visible
27 Aug - 10:49:57 10° S 10:54:14 49° ESE 10:58:52 10° NE daylight
27 Aug - 12:32:52 10° W 12:36:36 24° NW 12:40:35 10° N daylight
27 Aug - 17:47:57 10° N 17:50:40 14° NE 17:53:27 10° ENE daylight
27 Aug - 19:28:27 10° NNW 19:33:55 56° NE 19:39:38 10° SE visible
27 Aug - 21:11:08 10° NW 21:15:44 26° WSW 21:20:27 10° SSW visible
